Altus, OK

11:36 AM CST on February 08, 2016 (GMT -0600)
Altus Municipal

Weather History for KAXS - September, 2012

Change the Weather History Date:

Thursday, September 20, 2012

  Actual Average (KLTS) Record (KLTS)
Temperature  
Mean Temperature 78 °F -  
Max Temperature 96 °F 83 °F 100 °F (1998)
Min Temperature 59 °F 59 °F 51 °F (2002)
Cooling Degree Days 12    
Growing Degree Days 28 (Base 50)    
Moisture  
Dew Point 47 °F    
Average Humidity 44    
Maximum Humidity 72    
Minimum Humidity 14    
Precipitation  
Precipitation 0.00 in - - ()
Sea Level Pressure  
Sea Level Pressure 29.97 in    
Wind  
Wind Speed 9 mph (SE)    
Max Wind Speed 20 mph    
Max Gust Speed 26 mph    
Visibility 10 miles    
Events      
Averages and records for this station are not official NWS values.
T = Trace of Precipitation, MM = Missing Value Source: NWS Daily Summary

Daily Weather History Graph

Daily Weather History Graph

Search for Another Location

Airport or City:

Trip Planner

Search our weather history database for the weather conditions in past years. The results will help you decide how hot, cold, wet, or windy it might be!

Date:

Astronomy

Sep. 20, 2012 Rise Set
Actual Time 7:24 AM CDT 7:36 PM CDT
Civil Twilight 6:59 AM CDT 8:01 PM CDT
Nautical Twilight 6:29 AM CDT 8:30 PM CDT
Astronomical Twilight 5:59 AM CDT 9:00 PM CDT
Moon 12:29 PM CDT (9/20) 10:54 PM CDT (9/20)
Length of Visible Light 13h 02m
Length of Day
12h 11m
Waxing Crescent, 27% of the Moon is Illuminated
Sep 20
Waxing Crescent
Sep 22
First Quarter
Sep 29
Full
Oct 8
Last Quarter
Oct 15
New

Hourly Weather History & Observations

Time (CDT) Temp. Dew Point Humidity Pressure Visibility Wind Dir Wind Speed Gust Speed Precip Events Conditions
12:35 AM 68.0 °F 51.8 °F 56% 30.02 in 10.0 mi ESE 6.9 mph - N/A   Clear
12:55 AM 69.8 °F 53.6 °F 56% 30.02 in 10.0 mi ESE 5.8 mph - N/A   Clear
1:15 AM 68.0 °F 51.8 °F 56% 30.02 in 10.0 mi ESE 6.9 mph - N/A   Clear
1:35 AM 64.4 °F 51.8 °F 64% 30.02 in 10.0 mi ESE 6.9 mph - N/A   Clear
1:55 AM 64.4 °F 51.8 °F 64% 30.01 in 10.0 mi SE 8.1 mph - N/A   Clear
2:15 AM 64.4 °F 51.8 °F 64% 30.01 in 10.0 mi SE 6.9 mph - N/A   Clear
2:35 AM 62.6 °F 51.8 °F 68% 30.02 in 10.0 mi ESE 6.9 mph - N/A   Clear
2:55 AM 64.4 °F 51.8 °F 64% 30.01 in 10.0 mi SE 6.9 mph - N/A   Clear
3:15 AM 62.6 °F 51.8 °F 68% 30.01 in 10.0 mi ESE 6.9 mph - N/A   Clear
3:55 AM 60.8 °F 51.8 °F 72% 30.00 in 10.0 mi ESE 8.1 mph - N/A   Clear
4:15 AM 62.6 °F 51.8 °F 68% 30.00 in 10.0 mi ESE 8.1 mph - N/A   Clear
4:35 AM 62.6 °F 51.8 °F 68% 30.00 in 10.0 mi ESE 8.1 mph - N/A   Clear
4:55 AM 60.8 °F 51.8 °F 72% 30.00 in 10.0 mi East 8.1 mph - N/A   Clear
5:15 AM 62.6 °F 51.8 °F 68% 30.00 in 10.0 mi ESE 6.9 mph - N/A   Clear
5:35 AM 60.8 °F 51.8 °F 72% 30.00 in 10.0 mi ESE 6.9 mph - N/A   Clear
5:55 AM 60.8 °F 50.0 °F 68% 30.00 in 10.0 mi ESE 8.1 mph - N/A   Clear
6:15 AM 59.0 °F 50.0 °F 72% 30.01 in 10.0 mi ESE 6.9 mph - N/A   Clear
6:35 AM 59.0 °F 50.0 °F 72% 30.01 in 10.0 mi ESE 5.8 mph - N/A   Clear
6:55 AM 60.8 °F 50.0 °F 68% 30.01 in 10.0 mi SE 6.9 mph - N/A   Clear
7:15 AM 59.0 °F 50.0 °F 72% 30.02 in 10.0 mi ESE 6.9 mph - N/A   Clear
7:35 AM 59.0 °F 50.0 °F 72% 30.03 in 10.0 mi ESE 6.9 mph - N/A   Clear
7:55 AM 59.0 °F 50.0 °F 72% 30.04 in 10.0 mi East 8.1 mph - N/A   Clear
8:15 AM 60.8 °F 51.8 °F 72% 30.04 in 10.0 mi East 5.8 mph - N/A   Clear
8:35 AM 62.6 °F 51.8 °F 68% 30.04 in 10.0 mi ESE 5.8 mph - N/A   Clear
9:15 AM 68.0 °F 53.6 °F 60% 30.04 in 10.0 mi SE 5.8 mph - N/A   Clear
10:15 AM 73.4 °F 53.6 °F 50% 30.04 in 10.0 mi SSE 4.6 mph - N/A   Clear
10:35 AM 77.0 °F 53.6 °F 44% 30.04 in 10.0 mi SE 3.5 mph - N/A   Clear
2:55 PM 95.0 °F 50.0 °F 22% 29.95 in 10.0 mi SSW 6.9 mph 17.3 mph N/A   Clear
3:15 PM 96.8 °F 50.0 °F 20% 29.95 in 10.0 mi South 16.1 mph 19.6 mph N/A   Clear
3:35 PM 96.8 °F 46.4 °F 18% 29.94 in 10.0 mi South 16.1 mph 23.0 mph N/A   Clear
3:55 PM 96.8 °F 42.8 °F 16% 29.93 in 7.0 mi South 18.4 mph 25.3 mph N/A   Clear
4:15 PM 96.8 °F 42.8 °F 16% 29.92 in 10.0 mi SSW 17.3 mph - N/A   Clear
4:35 PM 96.8 °F 42.8 °F 16% 29.92 in 10.0 mi SSW 18.4 mph 21.9 mph N/A   Clear
5:15 PM 96.8 °F 41.0 °F 15% 29.91 in 10.0 mi SW 15.0 mph 26.5 mph N/A   Clear
5:35 PM 96.8 °F 41.0 °F 15% 29.91 in 10.0 mi South 19.6 mph - N/A   Clear
5:55 PM 96.8 °F 41.0 °F 15% 29.91 in 10.0 mi South 18.4 mph - N/A   Clear
6:15 PM 95.0 °F 41.0 °F 15% 29.91 in 10.0 mi South 19.6 mph - N/A   Clear
6:35 PM 95.0 °F 41.0 °F 15% 29.91 in 10.0 mi South 15.0 mph - N/A   Clear
6:55 PM 93.2 °F 37.4 °F 14% 29.91 in 10.0 mi SSW 12.7 mph - N/A   Clear
7:15 PM 91.4 °F 41.0 °F 17% 29.92 in 10.0 mi South 10.4 mph - N/A   Clear
7:35 PM 89.6 °F 41.0 °F 18% 29.92 in 10.0 mi South 9.2 mph - N/A   Clear
7:55 PM 87.8 °F 41.0 °F 19% 29.92 in 10.0 mi South 9.2 mph - N/A   Clear
8:35 PM 86.0 °F 39.2 °F 19% 29.92 in 10.0 mi South 11.5 mph - N/A   Clear
8:55 PM 86.0 °F 41.0 °F 20% 29.92 in 10.0 mi South 11.5 mph - N/A   Clear
9:15 PM 86.0 °F 41.0 °F 20% 29.93 in 10.0 mi South 12.7 mph - N/A   Clear
9:55 PM 80.6 °F 42.8 °F 26% 29.94 in 10.0 mi SSE 12.7 mph - N/A   Clear
10:15 PM 78.8 °F 42.8 °F 28% 29.94 in 10.0 mi SSE 9.2 mph - N/A   Clear
10:35 PM 77.0 °F 44.6 °F 32% 29.94 in 10.0 mi SSE 9.2 mph - N/A   Clear
10:55 PM 77.0 °F 44.6 °F 32% 29.94 in 10.0 mi SSE 11.5 mph - N/A   Clear
11:15 PM 77.0 °F 44.6 °F 32% 29.94 in 10.0 mi SSE 10.4 mph - N/A   Clear
11:35 PM 77.0 °F 46.4 °F 34% 29.93 in 10.0 mi SSE 10.4 mph - N/A   Clear
11:55 PM 75.2 °F 46.4 °F 36% 29.94 in 10.0 mi SSE 9.2 mph - N/A   Clear